Погода в Береге

Украина / Ровненская область     50°12′22″N   25°40′08″E
темп.,
°C
ветер,
м/с
пор.,
м/с
влажн.,
%
обл.,
%
осадки,
мм/ч
давл.,
гПа
погр.,
м
23 января, сб
сб2323:00+4ю51384100 0.0 1006254
02:00+4ю51385100 0.0 1006327
05:00+3ю5118639 0.0 1005211
08:00+4ююв4108570 0.0 1005198
11:00+6ю6128288 0.0 1005292
14:00+6ююв4108394 0.0 1004248
17:00+4ююв378897 0.0 1003113
20:00+3юв4108491 0.0 1002182
24 января, вс
вс2423:00+2юв4990100 0.0 1001202
02:00+1юв3894100 0.0 1000236
05:000юв3795100 0.0 998188
08:00+2ююв2597100 0.0 997144
11:00+2ю2595100 0.0 996298
14:00+2зюз2497100 0.8 994163
17:00+4зюз71493100 3.3 995649
20:00+3юз51291100 3.6 998485
25 января, пн
пн2523:00+2ююз3894100 0.0 1000250
02:00+2ююз119497 0.1 100122
05:00+1с119798 0.1 100131
08:000в359695 0.1 1002121
11:00+3всв4888100 0.0 1001379
14:00+3св61187100 0.0 999477
17:00+2св71297100 1.5 996585
20:00+2ссв81497100 10.1 992553
26 января, вт
вт2623:00+1с91499100 12.6 990501
02:00−1ссз101798100 23.7 989697
05:00−2сз122096100 6.3 9901135
08:00−2зсз132195100 12.1 9931412
11:00−2зсз142294100 5.8 9961461
14:00−2зсз142194100 9.8 9981400
17:00−2зсз132193100 2.1 10011332
20:00−2з111895100 3.6 10041222
27 января, ср
ср2723:00−2з111794100 1.3 1006882
02:00−2з91595100 2.3 1007949
05:00−2з91595100 0.8 1008953
08:00−3з81491100 1.1 1009775
11:00−3з71290100 0.1 1011761
14:00−2з61089100 0.1 1011803
17:00−2з51092100 0.1 1012666
20:00−4зюз379299 0.1 1013253